Location: Lesignano de� Bagni
(44.6500°N, 10.3000°E)
Time: 17:42:18
(UTC+00:00)

Cosmos 2322 - Pass Details

Date: 03 March 2021
Orbit: 842 x 853 km, 71.0° (Epoch: 18 April)

Event Time Altitude Azimuth Distance (km) Brightness Sun altitude
Rises 19:43:34 0° 218° (SW) 3,409 7.1 -27.8°
Reaches altitude 10° 19:46:05 10° 223° (SW) 2,477 6.4 -28.3°
Maximum altitude 19:51:38 53° 300° (WNW) 1,040 4.4 -29.2°
Drops below altitude 10° 19:57:14 10° 18° (NNE) 2,490 6.2 -30.1°
Sets 19:59:46 0° 23° (NNE) 3,428 6.9 -30.5°
